Regional Weather Roundup
Issued by NWS Charleston, SC

Current Version | Previous Version | Graphics & Text | Print | Product List | Glossary On
Versions: 1 2 3 4 5 6 7 8 9 10 11 12 13 14 15 16 17 18 19 20 21 22 23 24 25 26 27 28 29 30 31 32 33 34 35 36 37 38 39 40 41 42 43 44 45 46 47 48 49 50
000
ASUS42 KCHS 132110
RWRCHS

REGIONAL WEATHER ROUNDUP
NATIONAL WEATHER SERVICE CHARLESTON SC
500 PM EDT SUN JUL 13 2014

NOTE: "FAIR" INDICATES FEW OR NO CLOUDS BELOW 12,000 FEET WITH NO
SIGNIFICANT WEATHER AND/OR OBSTRUCTIONS TO VISIBILITY.

NOT ALL STATIONS ARE QUALITY CONTROLLED BY THE NATIONAL
WEATHER SERVICE. USE DATA WITH CAUTION...ESPECIALLY
DEWPOINT OBSERVATIONS.

SCZ027-030-031-034>040-042>050-132200-
...SOUTH CAROLINA...

CITY           SKY/WX    TMP DP  RH WIND       PRES   REMARKS
N CHARLESTON   PTSUNNY   83  71  67 SE9       30.08F
WATERFRONT PRK   N/A     81 N/A N/A SE10        N/A
FORT JOHNSON   NOT AVBL
MOUNT PLEASANT MOCLDY    82  75  78 SE6       30.09F
JOHNS ISLAND   PTCLDY    82  64  54 SE7       30.09F
PINOPOLIS        N/A     84  73  70 S2        30.00F HX  91
MONCKS CORNER    N/A     82  75  78 S3        30.08F
SUMMERVILLE    FAIR      86  73  66 S6        30.08F HX  93
BEAUFORT MCAS  PTSUNNY   84  73  69 SE7       30.08F HX  90
BEAUFORT ARPT  FAIR      84  73  70 SE3       30.08F HX  91
HILTON HEAD IS MOSUNNY   82  73  74 E6        30.10F
GEORGETOWN     NOT AVBL
WALTERBORO     MOCLDY    86  68  54 SE7       30.08F
ORANGEBURG     MOSUNNY   90  68  48 VRB6      30.05F HX  94
BARNWELL       FAIR      90  70  51 S6        30.05F HX  95
AIKEN          FAIR      91  68  46 SE6       30.08F HX  95
MANNING        FAIR      88  66  48 S8        30.06F HX  90
KINGSTREE      NOT AVBL
COLUMBIA       PTSUNNY   93  66  40 S3        30.03F HX  96
SUMTER         SUNNY     91  69  47 S5        30.03F HX  96
FLORENCE       MOSUNNY   92  68  45 S8        30.04F HX  96
MYRTLE BEACH   MOSUNNY   82  73  74 S15       30.08F
N MYRTLE BEACH PTSUNNY   84  75  74 S9        30.07F HX  92

$$

GAZ063-065-086>088-099>101-113>116-118-119-134-136>141-150-132200-
...GEORGIA...

CITY           SKY/WX    TMP DP  RH WIND       PRES   REMARKS
SAVANNAH ARPT  PTSUNNY   79  74  84 E10       30.08F
HUNTER AAF     TSTM      81  75  82 E9        30.07S
FORT STEWART   DRIZZLE   80  75  85 SE6       30.06F
STATESBORO     NOT AVBL
SYLVANIA       CLEAR     90  72  54 CALM      30.06F HX  97
CLAXTON        FAIR      91  72  52 CALM      30.06F HX  98
THOMSON        MOSUNNY   93  69  45 NW5       30.10F HX  98
AUGUSTA-BUSH   MOSUNNY   91  65  41 S3        30.04F HX  93
AUGUSTA-DANIEL PTSUNNY   93  65  39 VRB5      30.06F HX  95
SWAINSBORO     FAIR      93  70  46 CALM      30.06F HX  99
VIDALIA          N/A     90  70  51 CALM      30.06F HX  95
ALMA           PTSUNNY   89  68  49 SW3       30.06F HX  93
WAYCROSS       MOSUNNY   94  73  49 W7        30.06F HX 103
JESUP          NOT AVBL
BRUNSWICK      PTSUNNY   86  73  66 CALM      30.09F HX  93
SAINT SIMONS   MOSUNNY   85  74  69 SE12      30.08F HX  92

$$

SCZ027-028-034-036>038-045-046-048>050-GAZ119-141-132200-
...LAKE AND SUPPLEMENTAL COASTAL OBSERVATIONS...

STATION/POSITION TIME  TEMP    WIND        PRES    WAVE   SWELL
                       AIR SEA DIR/SP/G            HT/PER HT/PER/DIR
                 (UTC) (F)     (DEG/KT/KT) (MB)    (FT/S) (FT/S/D)
UPR LAKE MARION  NOT AVBL
WINYAH BAY       2000   82     160/  6     1019.0S
LAKE MURRAY      2000   90     220/  3/  3 1016.9F
ACE BASIN NERRS  2000   83      80/  1     1019.0F
FORT PULASKI     2100   81 78  110/ 10/ 12   N/A
SAPELO ISLAND    2000   85     110/  7     1020.0S

$$

ANZ835-935-AMZ111-154-330-350-352-354-374-450-454-472-132200-
...C-MAN AND BUOY OBSERVATIONS...

STATION/POSITION TIME  TEMP    WIND        PRES    WAVE   SWELL
                       AIR SEA DIR/SP/G            HT/PER HT/PER/DIR
                 (UTC) (F)     (DEG/KT/KT) (MB)    (FT/S) (FT/S/D)
FOLLY BEACH CMAN 2000   79     120/  4/  6 1019.9F
BUOY 41004       2100   79 82  180/ 10/ 14 1018.6F   2/ 8   2/ 8
BUOY 41008       2100   80 84  130/ 10/ 14 1019.0F   2/ 8   2/120/ 8
5E ST. MARYS GA  2100      83                N/A     2/ 8
FRYING PAN BUOY  NOT AVBL
BUOY 41025       2100          VRB  8/  8  1019.3F   2/ 7   2/120/ 7
CAPE LOOKOUT NC  2000   81     190/  9/ 14 1019.5F
BUOY 41002       2043   82 88  160/  4/  6 1021.0F   2/ 8   2/140/ 8
BUOY 41010       2100   83 85  120/  4/  6 1020.2F   3/ 8   3/120/ 8
BUOY 41012       NOT AVBL
ST AUGUSTINE FL  2100   80     110/  5/  6 1019.9F
CAPERS NEARSHORE 2000   81     180/  4/  6   N/A
FRIPP NEARSHORE  2000   81     160/  4/  4   N/A


$$



USA.gov is the U.S. government's official web portal to all federal, state and local government web resources and services.